Weather History for Oxford, NC

Change the Weather History Date:

Thursday, January 17, 2013

  Actual Average (KTDF) Record (KTDF)
Temperature  
Mean Temperature 40 °F -  
Max Temperature 48 °F 47 °F 71 °F (1974)
Min Temperature 32 °F 23 °F -2 °F (1977)
Degree Days  
Heating Degree Days 25    
Moisture  
Dew Point 44 °F    
Average Humidity 96    
Maximum Humidity 98    
Minimum Humidity 93    
Precipitation  
Precipitation 1.28 in - - ()
Sea Level Pressure  
Sea Level Pressure 30.00 in    
Wind  
Wind Speed 4 mph (NNE)    
Max Wind Speed 16 mph    
Max Gust Speed 25 mph    
Visibility 4 miles    
Events Rain , Snow    
Averages and records for this station are not official NWS values.
T = Trace of Precipitation, MM = Missing Value Source: NWS Daily Summary

Daily Weather History Graph

Daily Weather History Graph

Search for Another Location

Airport:

Trip Planner

Search our weather history database for the weather conditions in past years. The results will help you decide how hot, cold, wet, or windy it might be!

Date:

Astronomy

Jan. 17, 2013 Rise Set
Actual Time 7:24 AM EST 5:24 PM EST
Civil Twilight 6:56 AM EST 5:52 PM EST
Nautical Twilight 6:24 AM EST 6:24 PM EST
Astronomical Twilight 5:53 AM EST 6:55 PM EST
Moon 10:42 AM EST (1/17) No Moon Set
Length of Visible Light 10h 56m
Length of Day
10h 00m
Waxing Crescent, 37% of the Moon is Illuminated
Jan 17
Waxing Crescent
Jan 18
First Quarter
Jan 26
Full
Feb 3
Last Quarter
Feb 10
New

Hourly Weather History & Observations

Time (EST) Temp. Windchill Dew Point Humidity Pressure Visibility Wind Dir Wind Speed Gust Speed Precip Events Conditions
12:15 AM 48.4 °F - 47.5 °F 97% 29.98 in 4.0 mi Calm Calm - 0.01 in Rain Rain
12:35 AM 48.4 °F - 47.5 °F 97% 29.99 in 2.5 mi Calm Calm - 0.03 in Rain Heavy Rain
12:55 AM 48.4 °F - 47.5 °F 97% 29.99 in 3.0 mi Calm Calm - 0.05 in   Drizzle
1:15 AM 48.4 °F - 47.5 °F 97% 29.99 in 2.5 mi Calm Calm - 0.02 in Rain Light Rain
1:35 AM 48.4 °F - 47.5 °F 97% 30.00 in 3.0 mi Calm Calm - 0.04 in Rain Rain
1:55 AM 48.4 °F - 47.5 °F 97% 30.00 in 4.0 mi Calm Calm - 0.06 in Rain Rain
2:15 AM 48.4 °F - 47.5 °F 97% 30.00 in 3.0 mi Calm Calm - 0.02 in Rain Rain
2:35 AM 48.4 °F - 47.5 °F 97% 30.00 in 3.0 mi Calm Calm - 0.04 in Rain Rain
2:55 AM 48.4 °F - 47.5 °F 97% 29.99 in 3.0 mi ENE 3.5 mph - 0.06 in Rain Light Rain
3:15 AM 48.4 °F - 47.5 °F 97% 29.98 in 2.5 mi NE 3.5 mph - 0.01 in   Drizzle
3:35 AM 48.4 °F - 47.5 °F 97% 29.97 in 3.0 mi Calm Calm - 0.01 in Rain Light Rain
3:55 AM 48.4 °F - 47.5 °F 97% 29.99 in 3.0 mi North 3.5 mph - 0.04 in Rain Rain
4:15 AM 48.2 °F - 47.3 °F 97% 29.98 in 5.0 mi North 3.5 mph - 0.03 in Rain Rain
4:35 AM 48.2 °F - 47.3 °F 97% 29.99 in 4.0 mi North 5.8 mph - 0.04 in Rain Rain
4:55 AM 47.8 °F - 46.9 °F 97% 29.99 in 4.0 mi North 4.6 mph - 0.06 in Rain Rain
5:15 AM 47.8 °F - 46.9 °F 97% 29.99 in 4.0 mi North 4.6 mph - 0.01 in Rain Rain
5:35 AM 47.7 °F - 46.8 °F 97% 29.99 in 7.0 mi North 4.6 mph - 0.02 in   Drizzle
5:55 AM 47.7 °F - 46.8 °F 97% 30.00 in 5.0 mi NE 4.6 mph - 0.03 in Rain Rain
6:15 AM 47.5 °F - 46.6 °F 97% 30.00 in 7.0 mi NNE 3.5 mph - 0.01 in   Drizzle
6:35 AM 47.5 °F - 46.6 °F 97% 30.01 in 7.0 mi NE 3.5 mph - 0.01 in   Light Drizzle
6:55 AM 47.7 °F - 46.8 °F 97% 30.01 in 7.0 mi North 3.5 mph - 0.02 in Rain Light Rain
7:15 AM 47.7 °F - 46.8 °F 97% 30.02 in 7.0 mi NNE 3.5 mph - 0.01 in Rain Rain
7:35 AM 47.5 °F - 46.6 °F 97% 30.01 in 10.0 mi NE 4.6 mph - 0.01 in   Overcast
7:55 AM 47.7 °F - 46.8 °F 97% 30.02 in 10.0 mi NE 4.6 mph - 0.01 in   Overcast
8:15 AM 47.7 °F - 46.8 °F 97% 30.04 in 7.0 mi Calm Calm - 0.01 in Rain Light Rain
8:35 AM 47.7 °F - 46.8 °F 97% 30.05 in 3.0 mi North 3.5 mph - 0.06 in Rain Heavy Rain
8:55 AM 47.8 °F - 46.9 °F 97% 30.06 in 4.0 mi North 3.5 mph - 0.09 in Rain Rain
9:15 AM 48.0 °F - 47.1 °F 97% 30.05 in 5.0 mi NE 4.6 mph - 0.03 in Rain Light Rain
9:35 AM 48.2 °F - 47.3 °F 97% 30.06 in 7.0 mi NE 5.8 mph - 0.03 in Rain Rain
9:55 AM 48.2 °F - 47.3 °F 97% 30.06 in 5.0 mi North 3.5 mph - 0.05 in Rain Rain
10:15 AM 48.2 °F - 47.3 °F 97% 30.05 in 5.0 mi NNE 5.8 mph - 0.01 in Rain Rain
10:35 AM 48.2 °F - 47.3 °F 97% 30.06 in 4.0 mi North 4.6 mph - 0.03 in Rain Rain
10:55 AM 48.2 °F - 47.3 °F 97% 30.04 in 7.0 mi NNE 8.1 mph - 0.04 in Rain Rain
11:15 AM 48.2 °F - 47.3 °F 97% 30.05 in 3.0 mi NE 10.4 mph 16.1 mph 0.03 in Rain Rain
11:35 AM 47.8 °F - 46.8 °F 96% 30.03 in 5.0 mi NE 10.4 mph 17.3 mph 0.04 in   Overcast
11:55 AM 47.8 °F - 46.6 °F 95% 30.00 in 7.0 mi NE 11.5 mph - 0.04 in   Overcast
12:15 PM 47.5 °F - 46.4 °F 96% 30.00 in 10.0 mi NNE 5.8 mph - N/A   Overcast
12:35 PM 47.7 °F - 46.4 °F 95% 29.99 in 7.0 mi NNE 8.1 mph - N/A   Drizzle
12:55 PM 47.8 °F - 46.6 °F 95% 29.98 in 3.0 mi NE 6.9 mph - 0.02 in   Drizzle
1:15 PM 47.5 °F - 46.4 °F 96% 29.98 in 5.0 mi NNE 9.2 mph - 0.01 in   Drizzle
1:35 PM 46.4 °F 43.5 °F 45.0 °F 95% 29.97 in 2.5 mi NNE 5.8 mph - 0.02 in Rain Rain
1:55 PM 46.6 °F - 45.3 °F 95% 29.97 in 4.0 mi North 8.1 mph - 0.04 in Rain Rain
2:15 PM 46.6 °F - 45.3 °F 95% 29.96 in 4.0 mi NNE 9.2 mph - 0.01 in Rain Light Rain
2:35 PM 46.6 °F - 45.5 °F 96% 29.94 in 7.0 mi NNE 8.1 mph - 0.02 in Rain Light Rain
2:55 PM 46.8 °F - 45.5 °F 95% 29.94 in 7.0 mi NE 10.4 mph 16.1 mph 0.02 in Rain Rain
3:15 PM 45.7 °F 39.1 °F 44.6 °F 96% 29.95 in 5.0 mi ENE 15.0 mph 19.6 mph N/A   Overcast
3:35 PM 45.5 °F 39.2 °F 43.9 °F 94% 29.95 in 3.0 mi ENE 13.8 mph 19.6 mph N/A   Light Drizzle
3:55 PM 44.6 °F 37.4 °F 43.0 °F 94% 29.96 in 4.0 mi NE 16.1 mph 25.3 mph N/A Rain Light Rain
4:15 PM 43.9 °F 36.8 °F 42.1 °F 93% 29.97 in 1.8 mi NE 15.0 mph 18.4 mph N/A Rain Light Rain
4:35 PM 43.2 °F 35.6 °F 41.4 °F 93% 29.97 in 3.0 mi NE 16.1 mph 20.7 mph 0.01 in Rain Light Rain
4:55 PM 42.8 °F 36.2 °F 41.2 °F 94% 29.96 in 5.0 mi NE 12.7 mph 21.9 mph 0.01 in Rain Rain
5:15 PM 42.4 °F 36.1 °F 41.0 °F 95% 29.95 in 5.0 mi NNE 11.5 mph 23.0 mph N/A Rain Light Rain
5:35 PM 41.9 °F 34.0 °F 40.1 °F 93% 30.01 in 4.0 mi NE 16.1 mph 23.0 mph 0.03 in Rain Heavy Rain
5:55 PM 39.9 °F 32.5 °F 38.3 °F 94% 30.01 in 4.0 mi NNE 12.7 mph 21.9 mph 0.12 in Rain Rain
6:35 PM 38.1 °F 30.7 °F 36.5 °F 94% 30.02 in 5.0 mi NNE 11.5 mph 18.4 mph 0.12 in Rain Rain
7:15 PM 36.7 °F 28.4 °F 35.4 °F 95% 30.03 in 5.0 mi NNE 12.7 mph 19.6 mph 0.02 in Rain Rain
7:55 PM 33.1 °F 24.4 °F 32.0 °F 96% 30.02 in 3.0 mi NNE 11.5 mph 18.4 mph 0.10 in Snow Light Snow
8:55 PM 32.9 °F 25.3 °F 32.0 °F 96% 30.03 in 2.5 mi NNE 9.2 mph 18.4 mph 0.12 in Snow Light Snow
9:15 PM 32.9 °F 23.7 °F 32.0 °F 96% 30.01 in 3.0 mi NNE 12.7 mph 18.4 mph 0.03 in Snow Light Snow
9:35 PM 32.9 °F 25.9 °F 32.0 °F 96% 30.04 in 1.5 mi North 8.1 mph - 0.07 in Snow Light Snow
9:55 PM 32.5 °F 24.2 °F 32.0 °F 98% 30.00 in 1.5 mi NNE 10.4 mph - 0.12 in Snow Light Snow
10:15 PM 32.5 °F 27.1 °F 32.0 °F 98% 30.06 in 1.8 mi NNW 5.8 mph - 0.01 in Snow Light Snow
10:35 PM 32.5 °F 26.2 °F 32.0 °F 98% 30.04 in 1.5 mi NNE 6.9 mph - 0.05 in Snow Light Snow
10:55 PM 32.5 °F 27.1 °F 32.0 °F 98% 30.05 in 2.5 mi NNE 5.8 mph - 0.06 in Snow Light Snow